EN

Hourly Weather Dziuplina

Today, 29 October, Thursday

Time Temperature Precipitation Wind Pressure Humidity
00:00 +8°C° 0 mm 3 mps 750 mmHg 93%
01:00 +8°C° 0 mm 3 mps 750 mmHg 94%
02:00 +8°C° 0 mm 3 mps 749 mmHg 92%
03:00 +8°C° 0 mm 3 mps 749 mmHg 90%
04:00 +8°C° 0 mm 3 mps 749 mmHg 88%
05:00 +7°C° 0.1 mm 4 mps 749 mmHg 87%
06:00 +8°C° 0.1 mm 4 mps 748 mmHg 85%
07:00 +8°C° 0.1 mm 4 mps 748 mmHg 84%
08:00 +8°C° 0.5 mm 5 mps 748 mmHg 84%
09:00 +9°C° 0.5 mm 5 mps 748 mmHg 84%
10:00 +9°C° 0.5 mm 5 mps 748 mmHg 85%
11:00 +10°C° 0.4 mm 6 mps 749 mmHg 79%
12:00 +10°C° 0.4 mm 6 mps 749 mmHg 73%
13:00 +11°C° 0.4 mm 7 mps 749 mmHg 68%
14:00 +10°C° 0.2 mm 6 mps 749 mmHg 69%
15:00 +9°C° 0.2 mm 6 mps 750 mmHg 71%
16:00 +9°C° 0.2 mm 5 mps 750 mmHg 73%
17:00 +8°C° 0 mm 5 mps 751 mmHg 74%
18:00 +8°C° 0 mm 5 mps 751 mmHg 76%
19:00 +8°C° 0 mm 5 mps 752 mmHg 77%
20:00 +7°C° 0 mm 5 mps 752 mmHg 80%
21:00 +7°C° 0 mm 5 mps 752 mmHg 83%
22:00 +7°C° 0 mm 5 mps 753 mmHg 85%
23:00 +6°C° 0 mm 5 mps 753 mmHg 86%

Tomorrow, 30 October, Friday

Time Temperature Precipitation Wind Pressure Humidity
00:00 +6°C° 0 mm 4 mps 753 mmHg 87%
01:00 +6°C° 0 mm 4 mps 753 mmHg 88%
02:00 +6°C° 0 mm 4 mps 753 mmHg 88%
03:00 +5°C° 0 mm 3 mps 753 mmHg 89%
04:00 +5°C° 0 mm 3 mps 754 mmHg 89%
05:00 +5°C° 0.1 mm 3 mps 753 mmHg 90%
06:00 +6°C° 0.1 mm 2 mps 753 mmHg 90%
07:00 +7°C° 0.1 mm 2 mps 753 mmHg 90%
08:00 +7°C° 0.8 mm 2 mps 753 mmHg 92%
09:00 +7°C° 0.8 mm 3 mps 753 mmHg 93%
10:00 +7°C° 0.8 mm 3 mps 753 mmHg 94%
11:00 +8°C° 1.5 mm 3 mps 752 mmHg 95%
12:00 +8°C° 1.5 mm 2 mps 752 mmHg 96%
13:00 +8°C° 1.5 mm 2 mps 752 mmHg 97%
14:00 +9°C° 1.3 mm 2 mps 752 mmHg 97%
15:00 +10°C° 1.3 mm 3 mps 752 mmHg 97%
16:00 +10°C° 1.3 mm 3 mps 752 mmHg 97%
17:00 +11°C° 1 mm 3 mps 752 mmHg 96%
18:00 +11°C° 1 mm 4 mps 752 mmHg 96%
19:00 +12°C° 1 mm 4 mps 753 mmHg 96%
20:00 +12°C° 0.8 mm 4 mps 753 mmHg 96%
21:00 +12°C° 0.8 mm 4 mps 753 mmHg 95%
22:00 +12°C° 0.8 mm 4 mps 754 mmHg 95%
23:00 +12°C° 0.5 mm 4 mps 754 mmHg 96%

Day after tomorrow, 31 October, Saturday

Time Temperature Precipitation Wind Pressure Humidity
00:00 +12°C° 0.5 mm 3 mps 754 mmHg 96%
01:00 +12°C° 0.5 mm 3 mps 754 mmHg 96%
02:00 +12°C° 0.3 mm 3 mps 755 mmHg 96%
03:00 +13°C° 0.3 mm 2 mps 755 mmHg 96%
04:00 +12°C° 0.3 mm 2 mps 756 mmHg 97%
05:00 +12°C° 0.2 mm 2 mps 756 mmHg 97%
06:00 +12°C° 0.2 mm 2 mps 756 mmHg 97%
07:00 +12°C° 0.2 mm 1 mps 757 mmHg 97%
08:00 +12°C° 0.1 mm 1 mps 757 mmHg 96%
09:00 +12°C° 0.1 mm 1 mps 757 mmHg 95%
10:00 +12°C° 0.1 mm 1 mps 758 mmHg 94%
11:00 +12°C° 0 mm 1 mps 758 mmHg 93%
12:00 +12°C° 0 mm 2 mps 758 mmHg 93%
13:00 +12°C° 0 mm 2 mps 758 mmHg 92%
14:00 +12°C° 0 mm 2 mps 758 mmHg 92%
15:00 +12°C° 0 mm 2 mps 758 mmHg 92%
16:00 +12°C° 0 mm 2 mps 758 mmHg 92%
17:00 +12°C° 0 mm 2 mps 758 mmHg 93%
18:00 +12°C° 0 mm 2 mps 758 mmHg 93%
19:00 +12°C° 0 mm 2 mps 758 mmHg 93%
20:00 +11°C° 0 mm 3 mps 758 mmHg 92%
21:00 +11°C° 0 mm 3 mps 758 mmHg 90%
22:00 +11°C° 0 mm 3 mps 758 mmHg 89%
23:00 +10°C° 0 mm 3 mps 758 mmHg 89%

1 November, Sunday

Time Temperature Precipitation Wind Pressure Humidity
00:00 +10°C° 0 mm 3 mps 758 mmHg 90%
01:00 +10°C° 0 mm 3 mps 758 mmHg 90%
02:00 +8°C° 0 mm 4 mps 758 mmHg 89%
03:00 +8°C° 0 mm 4 mps 757 mmHg 89%
04:00 +7°C° 0 mm 4 mps 757 mmHg 88%
05:00 +7°C° 0 mm 4 mps 757 mmHg 87%
06:00 +7°C° 0 mm 4 mps 756 mmHg 86%
07:00 +6°C° 0 mm 4 mps 756 mmHg 86%
08:00 +7°C° 0 mm 5 mps 756 mmHg 82%
09:00 +8°C° 0 mm 5 mps 756 mmHg 78%
10:00 +9°C° 0 mm 5 mps 755 mmHg 74%
11:00 +10°C° 0 mm 5 mps 755 mmHg 74%
12:00 +12°C° 0 mm 5 mps 755 mmHg 73%
13:00 +13°C° 0 mm 5 mps 754 mmHg 72%
14:00 +13°C° 0 mm 5 mps 754 mmHg 75%
15:00 +12°C° 0 mm 5 mps 754 mmHg 77%
16:00 +12°C° 0 mm 4 mps 753 mmHg 80%
17:00 +12°C° 0 mm 4 mps 753 mmHg 81%
18:00 +11°C° 0 mm 4 mps 753 mmHg 82%
19:00 +11°C° 0 mm 4 mps 753 mmHg 82%
20:00 +11°C° 0 mm 4 mps 753 mmHg 83%
21:00 +11°C° 0 mm 4 mps 753 mmHg 83%
22:00 +11°C° 0 mm 4 mps 753 mmHg 84%
23:00 +11°C° 0 mm 3 mps 753 mmHg 84%

2 November, Monday

Time Temperature Precipitation Wind Pressure Humidity
00:00 +11°C° 0 mm 3 mps 753 mmHg 85%
01:00 +11°C° 0 mm 3 mps 753 mmHg 85%
02:00 +11°C° 0 mm 3 mps 752 mmHg 86%
03:00 +11°C° 0 mm 3 mps 752 mmHg 87%
04:00 +12°C° 0 mm 3 mps 752 mmHg 87%
05:00 +12°C° 0 mm 3 mps 752 mmHg 87%
06:00 +12°C° 0 mm 4 mps 752 mmHg 87%
07:00 +12°C° 0 mm 4 mps 752 mmHg 86%
08:00 +13°C° 0 mm 4 mps 752 mmHg 82%
09:00 +13°C° 0 mm 4 mps 752 mmHg 78%
10:00 +14°C° 0 mm 4 mps 751 mmHg 74%
11:00 +14°C° 0 mm 4 mps 751 mmHg 74%
12:00 +15°C° 0 mm 4 mps 751 mmHg 73%
13:00 +15°C° 0 mm 4 mps 751 mmHg 73%
14:00 +15°C° 0 mm 4 mps 751 mmHg 76%
15:00 +16°C° 0 mm 3 mps 751 mmHg 79%
16:00 +14°C° 0 mm 3 mps 751 mmHg 81%
17:00 +14°C° 0 mm 3 mps 751 mmHg 83%
18:00 +13°C° 0 mm 3 mps 752 mmHg 85%
19:00 +12°C° 0 mm 3 mps 752 mmHg 87%
20:00 +12°C° 0 mm 3 mps 752 mmHg 88%
21:00 +12°C° 0 mm 3 mps 752 mmHg 88%
22:00 +12°C° 0 mm 3 mps 752 mmHg 88%
23:00 +12°C° 0 mm 3 mps 752 mmHg 88%

3 November, Tuesday

Time Temperature Precipitation Wind Pressure Humidity
00:00 +12°C° 0 mm 3 mps 752 mmHg 87%
01:00 +12°C° 0 mm 3 mps 752 mmHg 87%
02:00 +13°C° 0 mm 2 mps 752 mmHg 86%
03:00 +13°C° 0 mm 2 mps 752 mmHg 86%
04:00 +13°C° 0 mm 2 mps 753 mmHg 86%
05:00 +13°C° 0 mm 2 mps 753 mmHg 85%
06:00 +13°C° 0 mm 1 mps 753 mmHg 84%
07:00 +13°C° 0 mm 1 mps 753 mmHg 83%
08:00 +13°C° 0.3 mm 1 mps 754 mmHg 86%
09:00 +13°C° 0.3 mm 1 mps 754 mmHg 89%
10:00 +13°C° 0.3 mm 1 mps 755 mmHg 92%
11:00 +13°C° 0.4 mm 1 mps 755 mmHg 93%
12:00 +13°C° 0.4 mm 1 mps 756 mmHg 94%
13:00 +13°C° 0.4 mm 1 mps 756 mmHg 95%
14:00 +13°C° 0.7 mm 2 mps 756 mmHg 94%
15:00 +12°C° 0.7 mm 3 mps 756 mmHg 93%
16:00 +12°C° 0.7 mm 3 mps 756 mmHg 93%
17:00 +11°C° 0.7 mm 3 mps 757 mmHg 92%
18:00 +11°C° 0.7 mm 3 mps 757 mmHg 91%
19:00 +11°C° 0.7 mm 3 mps 757 mmHg 91%
20:00 +11°C° 0.5 mm 3 mps 757 mmHg 90%
21:00 +10°C° 0.5 mm 3 mps 758 mmHg 90%
22:00 +10°C° 0.5 mm 3 mps 758 mmHg 89%
23:00 +10°C° 0.3 mm 3 mps 758 mmHg 89%
Show more